[[{"header":{"parameterUnit":"m.s-1","parameterCategory":1,"la1":30.2991,"la2":30.254,"lo1":-89.0895,"lo2":-89.0444,"dy":0.0017,"dx":0.0017,"nx":28,"ny":28,"refTime":"2024-04-01T21:00:00:Z","depth":0,"parameterNumber":2,"parameterNumberName":"U-component_of_WINDS"},"data":[0,0,0,0,0,0,0,0,0,0,0,0,0,0,0,0,0,0,0,0,0,0,0,0,0,0,0,0,0,0,0,0,0,0,0,0,0,0,0,0,0,0,0,0,0,0,0,0,0,0,0,0,0,0,0,0,0,0,-0.9753,-0.9754,0,-0.9838,-0.9839,-0.984,-0.9903,-0.9903,-0.9904,-0.9905,-0.9988,-0.999,-0.9991,0,0,0,0,0,0,0,0,0,0,0,0,0,-0.9641,-0.9642,-0.9753,-0.9754,-0.9755,-0.9838,-0.9839,-0.984,-0.9903,-0.9904,-0.9904,-0.9905,-0.9988,-0.999,-0.9992,0,0,0,0,0,0,0,0,0,0,0,0,0,-0.9704,-0.9643,-0.9753,-0.9796,-0.9801,-0.9838,-0.9839,-0.9841,-0.9903,-0.9904,-0.9904,-0.9905,-0.9987,-0.9989,-0.9992,-0.9991,0,0,-1.0,-1.0001,0,0,0,0,0,0,0,0,-0.97,-0.9708,-0.9789,-0.9793,-0.9799,-0.9861,-0.983,-0.9891,-0.9902,-0.9864,-0.9905,-0.9906,-0.9945,-0.9951,-0.9965,-0.9995,-0.9998,-1.0,-1.0001,-1.0003,-1.0003,0,0,0,0,0,0,0,-0.9696,-0.9705,-0.9786,-0.979,-0.9796,-0.981,-0.982,-0.9842,-0.9898,-0.9867,-0.9872,-0.9882,-0.9948,-0.9962,-0.9967,-1.0,-1.0,-1.0002,-1.0004,-1.0005,-1.0033,-1.0033,0,0,0,0,0,0,-0.9685,-0.9701,-0.9784,-0.9789,-0.9751,-0.9812,-0.9823,-0.984,-0.9899,-0.9908,-0.9881,-0.9884,-0.9958,-0.9964,-0.9971,-0.9973,-1.0003,-1.0005,-1.0006,-1.0034,-1.0033,-1.0032,0,0,0,0,0,0,-0.9682,-0.9692,-0.978,-0.9746,-0.9759,-0.9813,-0.9832,-0.9841,-0.9856,-0.9909,-0.9919,-0.9886,-0.9958,-0.9967,-0.9986,-0.9977,-1.0006,-1.0008,-1.0035,-1.0034,-1.0033,-0.9978,0,0,0,0,0,0,-0.9679,-0.9691,-0.9691,-0.9746,-0.976,-0.9795,-0.9831,-0.9842,-0.9861,-0.9866,-0.9916,-0.9925,-0.996,-0.9982,-0.9988,-0.9981,-1.001,-1.0036,-1.0034,-1.0033,-0.9981,-0.9976,-0.9971,0,0,0,0,0,-0.9675,-0.9672,-0.9691,-0.9701,-0.9763,-0.9794,-0.9802,-0.9844,-0.986,-0.9861,-0.9895,-0.9923,-0.9977,-0.9983,-0.9991,-0.9984,-1.0037,-1.0035,-1.0033,-0.9984,-0.9977,-0.9971,0,0,0,0,0,0,-0.9614,-0.968,-0.9702,-0.9717,-0.975,-0.9805,-0.9807,-0.9835,-0.9863,-0.9866,-0.9915,-0.9926,-0.9939,-0.9964,-0.9969,-0.9987,-1.001,-1.001,-0.997,-0.9964,-0.9959,-0.9952,-1.0013,0,0,0,0,0,-0.9602,-0.9623,-0.968,-0.9687,-0.9703,-0.9752,-0.9767,-0.9797,-0.9832,-0.9846,-0.9881,-0.9913,-0.9938,-0.9952,-0.9977,-0.9986,-0.9997,-0.9985,-0.998,-0.9975,-0.9974,-0.998,-0.9975,-1.0027,-1.0027,-1.0027,0,0,-0.9578,-0.9617,-0.9627,-0.9676,-0.9705,-0.9725,-0.9763,-0.9782,-0.9797,-0.9848,-0.9868,-0.9895,-0.9935,-0.9948,-0.9956,-0.9969,-0.9962,-0.9973,-0.9969,-0.997,-0.9977,-0.9972,-0.9968,-1.0025,-1.0026,-1.0026,0,0,-0.9544,-0.9576,-0.9586,-0.9614,-0.9658,-0.9691,-0.9693,-0.9745,-0.9765,-0.9787,-0.9825,-0.9843,-0.9884,-0.991,-0.9929,-0.9906,-0.9933,-0.9913,-0.9885,-0.989,-0.9886,-0.9883,-0.9874,-0.987,-0.9912,-0.9912,-0.9912,0,-0.9508,-0.9541,-0.9587,-0.9605,-0.9625,-0.9673,-0.9683,-0.9708,-0.9757,-0.9769,-0.9784,-0.9837,-0.9867,-0.9887,-0.9881,-0.9895,-0.9898,-0.9907,-0.9883,-0.988,-0.9878,-0.987,-0.9866,-0.9909,-0.9909,-0.991,-0.991,0,-0.9494,-0.9516,-0.9519,-0.9566,-0.9587,-0.96,-0.9648,-0.9663,-0.9691,-0.9722,-0.9742,-0.978,-0.9814,-0.9821,-0.9848,-0.9845,-0.9852,-0.9874,-0.9899,-0.9869,-0.9862,-0.986,-0.9905,-0.9906,-0.9907,-0.9908,0,0,-0.9423,-0.9497,-0.9497,-0.9519,-0.9572,-0.9589,-0.9604,-0.9639,-0.9651,-0.9683,-0.9696,-0.9731,-0.9752,-0.9773,-0.9803,-0.9808,-0.9786,-0.983,-0.9831,-0.9819,-0.9785,-0.9767,-0.9763,-0.9806,-0.9805,-0.9805,-0.9781,0,-0.9396,-0.9428,-0.947,-0.9487,-0.9508,-0.9555,-0.9568,-0.9601,-0.9631,-0.9652,-0.9684,-0.9707,-0.9734,-0.9747,-0.9754,-0.9787,-0.978,-0.979,-0.9817,-0.9818,-0.9805,-0.976,-0.9741,-0.9717,-0.9779,-0.9779,-0.9779,0,-0.9369,-0.9401,-0.942,-0.9471,-0.9481,-0.9492,-0.9527,-0.9547,-0.9586,-0.9607,-0.9631,-0.9664,-0.9682,-0.9705,-0.973,-0.9736,-0.9749,-0.9768,-0.9768,-0.9771,-0.9795,-0.976,-0.971,-0.9706,-0.9775,-0.9775,-0.9776,0,-0.9314,-0.9361,-0.9379,-0.9396,-0.9457,-0.9463,-0.9489,-0.9528,-0.9546,-0.9576,-0.9589,-0.962,-0.9637,-0.966,-0.9701,-0.9714,-0.9721,-0.9747,-0.9738,-0.9737,-0.9736,-0.9735,-0.9686,-0.9746,-0.9746,-0.9747,-0.9747,0,-0.9279,-0.9289,-0.9355,-0.9365,-0.9377,-0.9426,-0.9436,-0.9466,-0.95,-0.9517,-0.9559,-0.9574,-0.9627,-0.9647,-0.9679,-0.9694,-0.9701,-0.9718,-0.9726,-0.9714,-0.9711,-0.9723,-0.9725,-0.9746,-0.9746,-0.9746,-0.9746,0,-0.9219,-0.9264,-0.9286,-0.9342,-0.9356,-0.9362,-0.941,-0.9421,-0.9454,-0.9474,-0.9482,-0.9533,-0.9559,-0.9602,-0.964,-0.9662,-0.9671,-0.9685,-0.9658,-0.9663,-0.965,-0.965,-0.9605,-0.9602,-0.9665,-0.9664,-0.9664,0,-0.9193,-0.9202,-0.9259,-0.9274,-0.9298,-0.9321,-0.934,-0.9389,-0.9406,-0.9451,-0.9457,-0.9487,-0.9513,-0.9553,-0.9592,-0.9622,-0.9637,-0.9619,-0.9641,-0.9628,-0.9635,-0.9634,-0.9634,-0.9613,-0.9612,-0.9611,-0.9611,0,-0.9143,-0.9165,-0.9191,-0.9225,-0.9247,-0.9276,-0.9307,-0.9317,-0.9372,-0.939,-0.9418,-0.9438,-0.9478,-0.9507,-0.9542,-0.9567,-0.9598,-0.9604,-0.9603,-0.959,-0.9573,-0.9581,-0.9643,-0.9604,-0.9605,-0.9605,-0.9606,-0.9606,-0.9098,-0.9108,-0.915,-0.9178,-0.9207,-0.9235,-0.9249,-0.9284,-0.9309,-0.9346,-0.9373,-0.9399,-0.9437,-0.9488,-0.9512,-0.9532,-0.9546,-0.9545,-0.9544,-0.9543,-0.9538,-0.9571,-0.9539,-0.9539,-0.9539,-0.9539,-0.954,0,-0.9049,-0.9079,-0.9104,-0.9147,-0.9169,-0.9198,-0.9234,-0.925,-0.9273,-0.9306,-0.9332,-0.9364,-0.9392,-0.9435,-0.9466,-0.9474,-0.9489,-0.9481,-0.948,-0.9485,-0.9524,-0.9521,-0.9468,-0.9468,-0.9468,-0.9468,-0.9468,-0.9468,-0.9026,-0.9044,-0.9071,-0.9104,-0.9133,-0.916,-0.9178,-0.9204,-0.9231,-0.9266,-0.929,-0.9318,-0.9355,-0.939,-0.9417,-0.9429,-0.9438,-0.9425,-0.944,-0.9476,-0.9482,-0.9488,-0.9486,-0.9427,-0.9426,-0.94,-0.9399,-0.9399]},{"header":{"parameterUnit":"m.s-1","parameterCategory":1,"la1":30.2991,"la2":30.254,"lo1":-89.0895,"lo2":-89.0444,"dy":0.0017,"dx":0.0017,"nx":28,"ny":28,"refTime":"2024-04-01T21:00:00:Z","depth":0,"parameterNumber":3,"parameterNumberName":"V-component_of_WINDS"},"data":[0,0,0,0,0,0,0,0,0,0,0,0,0,0,0,0,0,0,0,0,0,0,0,0,0,0,0,0,0,0,0,0,0,0,0,0,0,0,0,0,0,0,0,0,0,0,0,0,0,0,0,0,0,0,0,0,0,0,4.5491,4.5493,0,4.5679,4.5681,4.5683,4.5733,4.5731,4.573,4.5729,4.5921,4.5927,4.5933,0,0,0,0,0,0,0,0,0,0,0,0,0,4.5175,4.5181,4.5491,4.5493,4.5496,4.5678,4.5681,4.5683,4.5733,4.5731,4.573,4.5729,4.5919,4.5926,4.5933,0,0,0,0,0,0,0,0,0,0,0,0,0,4.5333,4.5183,4.549,4.5542,4.5549,4.5678,4.5681,4.5684,4.5733,4.5731,4.573,4.5728,4.5916,4.5925,4.5934,4.6025,0,0,4.5962,4.5966,0,0,0,0,0,0,0,0,4.5324,4.5344,4.5532,4.5539,4.5546,4.568,4.564,4.5798,4.5733,4.5663,4.5729,4.5727,4.5842,4.5857,4.5896,4.6034,4.6042,4.5963,4.5969,4.5973,4.5975,0,0,0,0,0,0,0,4.5313,4.5336,4.5565,4.5535,4.5544,4.5556,4.5577,4.567,4.576,4.5669,4.5673,4.5695,4.5846,4.5887,4.5901,4.6045,4.5963,4.5971,4.5977,4.598,4.6268,4.627,0,0,0,0,0,0,4.5293,4.5327,4.5559,4.5571,4.5429,4.5563,4.5586,4.5639,4.5759,4.5775,4.5696,4.5696,4.5872,4.589,4.5908,4.6024,4.5973,4.5981,4.5987,4.6266,4.6269,4.6271,0,0,0,0,0,0,4.5286,4.5313,4.5552,4.545,4.5481,4.557,4.563,4.5644,4.5685,4.5779,4.5795,4.5722,4.5872,4.5895,4.5996,4.6031,4.5985,4.5994,4.6264,4.6267,4.627,4.6254,0,0,0,0,0,0,4.5277,4.531,4.5346,4.545,4.5487,4.5636,4.5632,4.5649,4.5701,4.5703,4.5808,4.5824,4.5872,4.5982,4.6005,4.6043,4.6001,4.6261,4.6265,4.6269,4.6252,4.6257,4.626,0,0,0,0,0,4.5265,4.5333,4.5347,4.5375,4.5533,4.5638,4.5659,4.5714,4.5704,4.574,4.5801,4.582,4.6023,4.5992,4.6018,4.6059,4.6259,4.6264,4.6269,4.625,4.6256,4.626,0,0,0,0,0,0,4.523,4.5348,4.5365,4.5469,4.5543,4.5646,4.5694,4.5717,4.5796,4.5795,4.5859,4.5882,4.5979,4.6029,4.5992,4.6154,4.6141,4.6151,4.6118,4.6124,4.6128,4.6115,4.6009,0,0,0,0,0,4.5234,4.531,4.5409,4.5491,4.5528,4.5604,4.5652,4.5688,4.5768,4.58,4.5867,4.5944,4.6025,4.6077,4.6157,4.6259,4.6283,4.63,4.6304,4.6307,4.6316,4.6376,4.6385,4.6287,4.6287,4.6287,0,0,4.5244,4.5318,4.5362,4.5486,4.5548,4.5626,4.5631,4.5712,4.5771,4.5812,4.5912,4.5964,4.6054,4.6156,4.6205,4.6201,4.6348,4.6313,4.6315,4.6322,4.6381,4.6391,4.6399,4.629,4.6289,4.6289,0,0,4.5301,4.5364,4.5441,4.5503,4.5597,4.5647,4.5665,4.5766,4.5802,4.5904,4.5937,4.6007,4.6145,4.6208,4.6258,4.634,4.6362,4.6364,4.6386,4.6444,4.6452,4.6459,4.649,4.65,4.6372,4.6372,4.6372,0,4.5302,4.542,4.5477,4.5558,4.5612,4.5653,4.5731,4.5788,4.5903,4.594,4.5934,4.6109,4.6172,4.6291,4.6311,4.6349,4.6373,4.6354,4.6446,4.6454,4.6461,4.6492,4.6503,4.6372,4.6372,4.6372,4.6372,0,4.5416,4.5498,4.5548,4.5659,4.5719,4.5798,4.5867,4.592,4.5951,4.6002,4.6105,4.6183,4.6279,4.631,4.634,4.6434,4.6428,4.6433,4.6422,4.647,4.6499,4.6511,4.6372,4.6372,4.6372,4.6372,0,0,4.5458,4.5599,4.5617,4.5669,4.5775,4.584,4.592,4.6016,4.6061,4.6139,4.6209,4.6325,4.6331,4.6388,4.6425,4.6475,4.6538,4.6475,4.6478,4.6485,4.6648,4.6645,4.6657,4.6552,4.6554,4.6556,4.6641,0,4.553,4.5677,4.573,4.5851,4.5928,4.5968,4.6039,4.6112,4.6162,4.6235,4.629,4.6372,4.6372,4.6407,4.6458,4.6519,4.6572,4.6514,4.6619,4.6622,4.6597,4.6672,4.6669,4.6745,4.6652,4.6654,4.6656,0,4.5634,4.5714,4.5843,4.5941,4.5976,4.6038,4.6131,4.6199,4.6283,4.6316,4.638,4.6415,4.6501,4.6484,4.6605,4.6564,4.661,4.6647,4.6651,4.6664,4.6643,4.6689,4.6771,4.6782,4.6674,4.6673,4.6672,0,4.5654,4.5793,4.5889,4.5931,4.6048,4.6091,4.6142,4.6225,4.6279,4.6359,4.6395,4.6484,4.6534,4.6602,4.666,4.6641,4.6776,4.6763,4.6807,4.6806,4.6835,4.6833,4.6927,4.6862,4.6862,4.6861,4.6861,0,4.573,4.5808,4.5899,4.5958,4.6046,4.6107,4.6193,4.6246,4.6319,4.6389,4.6429,4.6494,4.6566,4.664,4.6686,4.678,4.6802,4.6832,4.6843,4.6829,4.6826,4.6862,4.6859,4.6864,4.6864,4.6863,4.6863,0,4.5767,4.5832,4.5939,4.6041,4.6068,4.6129,4.6217,4.6275,4.6327,4.6416,4.644,4.6521,4.6611,4.6675,4.6791,4.6822,4.6924,4.6934,4.6896,4.6902,4.6943,4.6939,4.7065,4.7086,4.7005,4.7005,4.7006,0,4.5813,4.5873,4.5982,4.6032,4.6083,4.6163,4.6219,4.6281,4.6337,4.6438,4.6485,4.6578,4.6656,4.6798,4.6867,4.6956,4.697,4.7008,4.6984,4.6969,4.6973,4.697,4.6977,4.7012,4.7013,4.7013,4.7013,0,4.5887,4.5916,4.5995,4.6086,4.6151,4.6225,4.63,4.6339,4.6414,4.6476,4.6568,4.6629,4.6747,4.6839,4.6935,4.6988,4.7014,4.702,4.7036,4.7023,4.6999,4.7015,4.6908,4.7018,4.7017,4.7017,4.7017,4.7016,4.5931,4.5988,4.6074,4.6161,4.6223,4.6292,4.6353,4.6413,4.6491,4.6593,4.6625,4.6721,4.6805,4.6937,4.6991,4.7067,4.7066,4.7087,4.7093,4.7098,4.7099,4.6985,4.7085,4.7085,4.7085,4.7085,4.7085,0,4.6009,4.6066,4.6146,4.625,4.6318,4.6336,4.642,4.6477,4.6561,4.6637,4.6713,4.682,4.691,4.6987,4.708,4.7127,4.7141,4.7149,4.7147,4.7159,4.7094,4.7072,4.7136,4.7136,4.7136,4.7136,4.7136,4.7136,4.6058,4.6155,4.6194,4.6323,4.638,4.6475,4.6522,4.6586,4.6647,4.6765,4.684,4.689,4.6967,4.7066,4.7149,4.717,4.7203,4.7209,4.7232,4.717,4.7164,4.7158,4.7138,4.7215,4.7215,4.7292,4.7292,4.7293]}]]